Terminal Aerodrome Forecast
Issued by NWS Charleston, WV

Current Version | Previous Version | Text Only | Print | Product List | Glossary Off
Versions: 1 2 3 4 5 6 7 8 9 10 11 12 13 14 15 16 17 18 19 20

638
FTUS41 KRLX 301138
TAFPKB
TAF
KPKB 301138Z 3012/0112 VRB03KT 6SM HZ BKN170
     FM301400 VRB03KT P6SM BKN080
     FM301900 VRB03KT 3SM -SHRA BR OVC025
     FM010300 16005KT 6SM -SHRA BR BKN035
     FM010500 17006KT 6SM BR BKN070=

USA.gov is the U.S. government's official web portal to all federal, state and local government web resources and services.